Weather in Chineta

Russia / Altai Krai     51°20′05″N   83°03′00″E
temp.,
°C
wind,
m/s
gust,
m/s
humid.,
%
clouds,
%
prec.,
mm/h
press.,
hPa
HPBL,
m
8 may, sat
sat801:00+7ese1183100 0.0 102011
04:00+6ese1183100 0.0 102011
07:00+7ene118091 0.0 102114
10:00+13nne245496 0.0 1020789
13:00+16n34391 0.0 10201119
16:00+17n34360 0.0 10191193
19:00+15nne34440 0.0 1019963
22:00+9ese22600 0.0 102012
9 may, sun
sun901:00+8ese21635 0.0 102010
04:00+6se226977 0.0 101911
07:00+7ese216999 0.0 101820
10:00+14ne2444100 0.0 1016468
13:00+18ne3435100 0.0 1015935
16:00+19nne3331100 0.0 10141425
19:00+17nne4747100 0.0 1013627
22:00+11ene226796 0.0 101432
10 may, mon
mon1001:00+7ne2283100 0.0 101432
04:00+6ne2288100 0.0 101331
07:00+7nne1285100 0.0 101380
10:00+10nne2271100 0.0 1012305
13:00+17nne224963 0.0 1009834
16:00+19ne434861 0.0 10081037
19:00+15ne48546 0.3 1007523
22:00+9wsw1166100 0.5 100815
11 may, tue
tue1101:00+8wnw117396 0.6 100810
04:00+6ne118096 0.1 100910
07:00+6nnw118382 0.6 101187
10:00+10n226163 0.1 1012514
13:00+12nne454490 0.1 10121119
16:00+14n56375 0.0 10121558
19:00+13n454591 0.0 10141698
22:00+7ne11645 0.0 101611
12 may, wed
wed1201:00+6w116684 0.0 101710
04:00+4wsw117770 0.0 101810
07:00+5nw118156 0.0 101952
10:00+8n346496 0.1 10191162
13:00+11n444478 0.3 10182024
16:00+11n454899 0.1 10181985
19:00+10nne454915 0.1 10181508
22:00+5ene23795 0.0 102062